sat.trackr.live / text

‹ back to catalog

ONEWEB-0090

NORAD 45427 · 2020-020D

PAYLOAD ACTIVE UNKNOWN

§ Identity

Operator
Country
UK
Launch date
2020-03-21
Launch site
TYMSC
Launch vehicle
Mass (kg)
RCS (m²)

Purposes: comms

External: N2YO · Heavens-Above · Gunter

§ Orbital elements

Epoch: 2026-05-25T02:16:50.737152Z

Period
109.80 min
Inclination
87.8920°
Eccentricity
0.0001719
Mean motion
13.11418667 rev/d
Perigee alt
1,216.4 km
Apogee alt
1,219.0 km
Semi-major
7,595.8 km
B*
-3.4206e-4
RAAN
25.6645°
Arg perigee
81.5369°
Mean anomaly
278.5954°
Rev number
29,964

§ Raw data

ONEWEB-00901 45427U 20020D   26145.09503168 -.00000109  00000+0 -34206-3 0  99952 45427  87.8920  25.6645 0001719  81.5369 278.5954 13.11418667299644

JSON: /api/v1/satellites/45427 · /tle

For live sub-satellite position, see the globe view (requires WebGL).

§ Visibility from observer

Set your observer location to see the next 7 days of passes ≥ 10°. The values pass through the URL so the page stays shareable.

No JS? Fill the form by hand. The geolocation button needs JavaScript.